Weather History for Belleville, IL

Change the Weather History Date:

Thursday, September 5, 2013

  Actual Average Record
Temperature  
Mean Temperature 72 °F -  
Max Temperature 86 °F 84 °F 103 °F (1954)
Min Temperature 57 °F 59 °F 42 °F (1974)
Cooling Degree Days 6    
Growing Degree Days 22 (Base 50)    
Moisture  
Dew Point 63 °F    
Average Humidity 79    
Maximum Humidity 100    
Minimum Humidity 45    
Precipitation  
Precipitation 0.00 in - - ()
Sea Level Pressure  
Sea Level Pressure 30.17 in    
Wind  
Wind Speed 1 mph (ENE)    
Max Wind Speed 8 mph    
Max Gust Speed -    
Visibility 9 miles    
Events      
Averages and records for this station are not official NWS values.
T = Trace of Precipitation, MM = Missing Value Source: NWS Daily Summary

Daily Weather History Graph

Daily Weather History Graph

Search for Another Location

Airport:

Trip Planner

Search our weather history database for the weather conditions in past years. The results will help you decide how hot, cold, wet, or windy it might be!

Date:

Astronomy

Sep. 05, 2013 Rise Set
Actual Time 6:32 AM CDT 7:22 PM CDT
Civil Twilight 6:05 AM CDT 7:49 PM CDT
Nautical Twilight 5:33 AM CDT 8:21 PM CDT
Astronomical Twilight 5:00 AM CDT 8:54 PM CDT
Moon 6:43 AM CDT (9/5) 7:15 PM CDT (9/5)
Length of Visible Light 13h 44m
Length of Day
12h 50m
New Moon, 0% of the Moon is Illuminated
Sep 5
New Moon
Sep 12
First Quarter
Sep 19
Full
Sep 26
Last Quarter
Oct 4
New

Hourly Weather History & Observations

Time (CDT) Temp. Heat Index Dew Point Humidity Pressure Visibility Wind Dir Wind Speed Gust Speed Precip Events Conditions
12:58 AM 62.6 °F - 62.1 °F 98% 30.14 in 10.0 mi Calm Calm - N/A   Clear
1:58 AM 60.8 °F - 60.4 °F 99% 30.15 in 10.0 mi Calm Calm - N/A   Clear
2:58 AM 60.4 °F - 60.1 °F 99% 30.14 in 10.0 mi Calm Calm - N/A   Clear
3:58 AM 59.7 °F - 59.5 °F 99% 30.14 in 10.0 mi Calm Calm - N/A   Clear
4:08 AM 59.0 °F - 59.0 °F 100% 30.14 in 9.0 mi Calm Calm - N/A   Clear
4:13 AM 59.0 °F - 59.0 °F 100% 30.14 in 10.0 mi Calm Calm - N/A   Clear
4:33 AM 59.0 °F - 59.0 °F 100% 30.14 in 9.0 mi Calm Calm - N/A   Clear
4:58 AM 58.6 °F - 58.3 °F 99% 30.15 in 7.0 mi Calm Calm - N/A   Clear
5:33 AM 59.0 °F - 59.0 °F 100% 30.16 in 10.0 mi Calm Calm - N/A   Clear
5:48 AM 59.0 °F - 59.0 °F 100% 30.16 in 9.0 mi Calm Calm - N/A   Clear
5:58 AM 58.3 °F - 58.3 °F 100% 30.17 in 7.0 mi Calm Calm - N/A   Clear
6:18 AM 57.2 °F - 57.2 °F 100% 30.17 in 4.0 mi Calm Calm - N/A   Clear
6:38 AM 59.0 °F - 59.0 °F 100% 30.17 in 1.8 mi Calm Calm - N/A   Clear
6:43 AM 57.2 °F - 57.2 °F 100% 30.17 in 1.8 mi Calm Calm - N/A   Clear
6:48 AM 57.2 °F - 57.2 °F 100% 30.18 in 3.0 mi Calm Calm - N/A   Clear
6:58 AM 58.1 °F - 58.1 °F 100% 30.19 in 8.0 mi Calm Calm - N/A   Clear
7:58 AM 61.3 °F - 61.3 °F 100% 30.20 in 10.0 mi Calm Calm - N/A   Clear
8:58 AM 67.5 °F - 65.8 °F 95% 30.19 in 10.0 mi Variable 1.2 mph - N/A   Clear
9:56 AM 75.2 °F - 64.4 °F 69% 30.20 in 10.0 mi Variable 1.2 mph - N/A   Clear
10:56 AM 80.6 °F 82.7 °F 66.2 °F 61% 30.20 in 10.0 mi Variable 1.2 mph - N/A   Clear
11:04 AM 80.6 °F 82.7 °F 66.2 °F 61% 30.21 in 10.0 mi Calm Calm - N/A   Partly Cloudy
11:10 AM - - - N/A% - - North - - N/A   Unknown
11:14 AM 80.6 °F 82.3 °F 64.4 °F 58% 30.21 in 10.0 mi ENE 3.5 mph - N/A   Partly Cloudy
11:23 AM 80.6 °F 82.3 °F 64.4 °F 58% 30.21 in 10.0 mi East 4.6 mph - N/A   Partly Cloudy
11:36 AM 82.4 °F 83.9 °F 64.4 °F 54% 30.21 in 10.0 mi Variable 3.5 mph - N/A   Partly Cloudy
11:56 AM 82.4 °F 83.4 °F 62.6 °F 51% 30.20 in 10.0 mi NNE 3.5 mph - N/A   Clear
12:39 PM 82.4 °F 83.4 °F 62.6 °F 51% 30.19 in 10.0 mi NE 8.1 mph - N/A   Clear
12:54 PM 84.2 °F 85.6 °F 64.4 °F 51% 30.19 in 10.0 mi ENE 6.9 mph - N/A   Partly Cloudy
12:58 PM 85.1 °F 86.6 °F 64.4 °F 50% 30.19 in 10.0 mi NE 8.1 mph - 0.00 in   Clear
1:58 PM 84.4 °F 85.2 °F 63.0 °F 48% 30.18 in 10.0 mi East 6.9 mph - N/A   Partly Cloudy
2:58 PM 85.1 °F 86.4 °F 63.9 °F 49% 30.16 in 10.0 mi East 3.5 mph - N/A   Clear
3:13 PM 84.2 °F 85.0 °F 62.6 °F 48% 30.15 in 10.0 mi East 6.9 mph - N/A   Clear
3:19 PM 86.0 °F 86.6 °F 62.6 °F 45% 30.15 in 10.0 mi South 2.3 mph - N/A   Clear
3:58 PM 85.6 °F 87.1 °F 64.8 °F 49% 30.15 in 10.0 mi Variable 3.5 mph - 0.00 in   Clear
4:20 PM 86.0 °F 87.3 °F 64.4 °F 48% 30.15 in 10.0 mi ESE 5.8 mph - N/A   Clear
4:58 PM 84.6 °F 85.6 °F 63.5 °F 49% 30.15 in 10.0 mi ENE 4.6 mph - 0.00 in   Clear
5:58 PM 80.6 °F 81.9 °F 63.3 °F 55% 30.14 in 10.0 mi NE 3.5 mph - N/A   Partly Cloudy
6:58 PM 77.9 °F - 66.0 °F 67% 30.14 in 10.0 mi NNE 1.2 mph - N/A   Mostly Cloudy
7:58 PM 71.1 °F - 66.9 °F 87% 30.15 in 10.0 mi Calm Calm - N/A   Clear
8:58 PM 70.3 °F - 67.3 °F 90% 30.15 in 10.0 mi Calm Calm - N/A   Overcast
9:58 PM 70.2 °F - 66.7 °F 89% 30.16 in 10.0 mi Calm Calm - N/A   Overcast
10:58 PM 67.3 °F - 66.0 °F 96% 30.17 in 10.0 mi Calm Calm - N/A   Clear
11:23 PM 66.2 °F - 66.2 °F 100% 30.16 in 9.0 mi Calm Calm - N/A   Clear
11:33 PM 66.2 °F - 66.2 °F 100% 30.16 in 10.0 mi Calm Calm - N/A   Clear
11:53 PM 66.2 °F - 66.2 °F 100% 30.17 in 8.0 mi Calm Calm - N/A   Clear
11:58 PM 66.4 °F - 66.0 °F 99% 30.17 in 8.0 mi Calm Calm - N/A   Clear